Location: Ch�tillon
(48.8024°N, 2.2935°E)
Time: 17:19:08
(UTC+00:00)

RS-15 - Pass Details

Date: 30 June 2022
Orbit: 1881 x 2163 km, 64.8° (Epoch: 11 August)

Event Time Altitude Azimuth Distance (km) Brightness Sun altitude
Rises 21:28:53 0° 310° (NW) 5,683 12.1 -11.1°
Reaches altitude 10° 21:32:33 10° 316° (NW) 4,688 11.5 -11.4°
Maximum altitude 21:44:39 53° 32° (NNE) 2,534 8.8 -12.4°
Drops below altitude 10° 21:56:27 10° 108° (ESE) 4,594 9.6 -13.4°
Enters shadow 21:59:25 - 113° (ESE) 5,409 9.9 -13.6°
